Flag for Norway Weather past 2 weeks in Hamar, Norway

Now
57 °F

Cool.


Feels Like: 57 °F
Forecast: 59 / 77 °F
Wind: 1 mph from Northwest

Location: Haugedalshogda

Current Time: Jul 4, 2015 at 1:42:26 AM

Latest Report: Jul 4, 2015 at 1:00 AM


Visibility: N/A

Pressure: 30.19 "Hg

Humidity: 87%

Dew point: 53 °F

Location of HamarLocation

Historic Weather in Hamar — Graph

°F

Hamar temperature yesterday

Maximum temperature yesterday: 78 °F (at 5:00 PM)
Minimum temperature yesterday: 46 °F (at 4:00 AM)
Average temperature yesterday: 68 °F

Past Weeks' High & Low Weather Summary

 TemperatureHumidityPressure
High82 °F (Jul 1, 4:00 PM)95% (Jun 22, 5:00 AM)30.32 "Hg (Jun 22, 5:00 AM)
Low38 °F (Jun 19, 3:00 AM)25% (Jun 20, 1:00 PM)29.69 "Hg (Jun 23, 3:00 PM)
Average59 °F65%29.95 "Hg
* Reported Midnight between Jun 18 and Jun 19 — Midnight between Jul 3 and Jul 4, Hamar, Weather by CustomWeather, © 2015

Note: Actual official high and low records may vary slightly from our data, if they occured in-between our weather recording intervals... More about our weather records

Advertising

Hamar weather history for previous 24 hours

 ConditionsComfort  
Time TempWeatherWind HumidityBarometerVisibility
12:00 AM
Sat, Jul 4
62 °FCool.1 mph82%30.17 "HgN/A
11:00 PM
Fri, Jul 3
69 °FMild.1 mph66%30.15 "HgN/A
10:00 PM74 °FMild.5 mph56%30.13 "HgN/A
9:00 PM75 °FMild.2 mph55%30.12 "HgN/A
8:00 PM76 °FMild.3 mph53%30.12 "HgN/A
7:00 PM77 °FWarm.5 mph49%30.12 "HgN/A
6:00 PM78 °FWarm.3 mph50%30.13 "HgN/A
5:00 PM78 °FWarm.6 mph49%30.14 "HgN/A
4:00 PM76 °FMild.5 mph51%30.17 "HgN/A
3:00 PM71 °FMild.5 mph56%30.19 "HgN/A
2:00 PM74 °FMild.7 mph48%30.18 "HgN/A
1:00 PM77 °FWarm.5 mph40%30.17 "HgN/A
12:00 PM74 °FMild.5 mph43%30.19 "HgN/A
11:00 AM75 °FMild.7 mph37%30.20 "HgN/A
10:00 AM71 °FMild.5 mph43%30.22 "HgN/A
9:00 AM69 °FMild.3 mph51%30.23 "HgN/A
8:00 AM66 °FMild.3 mph54%30.26 "HgN/A
7:00 AM63 °FMild.2 mph58%30.27 "HgN/A
6:00 AM59 °FCool.1 mph69%30.29 "HgN/A
4:00 AM46 °FCool.1 mph89%30.31 "HgN/A
3:00 AM47 °FCool.1 mph86%30.31 "HgN/A
2:00 AM48 °FCool.1 mph83%30.32 "HgN/A
1:00 AM53 °FCool.No wind74%30.31 "HgN/A
Weather by CustomWeather, © 2015

See weather overviewHow to use our weather pages